User: anonymous   Login
Location: Days
(41.3591°N, 106.7339°W)
Time: 10:11:38
(UTC+00:00)
Language:

METEOR 2-5 DEB - Orbit

View from above orbital plane
View from above orbital plane
View from above satellite
View from above satellite

Ground track
Ground track

The orbit data is extracted from the following two-line orbital elements,

1 36922U 79095BP  22328.30567059  .00014298  00000-0  14709-2 0  9991
2 36922  81.1918 178.6408 0008816   8.7587 351.3780 14.90205810476985
Epoch (UTC): 24 November 2022 07:20:09
Eccentricity: 0.0008816
inclination: 81.1918°
perigee height: 591 km
apogee height: 603 km
right ascension of ascending node: 178.6408°
argument of perigee: 8.7587°
revolutions per day: 14.90205810
mean anomaly at epoch: 351.3780°
orbit number at epoch: 47698

The dashed part of the orbit path shows where the satellite is in the earth's shadow,  

DLR